This is the latest recevied weather packets stored in our database for station/object LU3HGB-WX. If no packets are shown the sender has not sent any weather packets the latest 10 day(s).
| Time | Temp. | Humidity | Pressure | Rain* | Wind** | Luminosity | Snow |
|---|---|---|---|---|---|---|---|
| 1778091760 | 27.78° C | 41% | 1006 hPa | 0 mm | - | 548 W/m² | - |
| 1778091460 | 27.78° C | 42% | 1006 hPa | 0 mm | - | 561 W/m² | - |
| 1778091159 | 27.78° C | 42% | 1006 hPa | 0 mm | - | 573 W/m² | - |
| 1778090859 | 27.78° C | 43% | 1006 hPa | 0 mm | - | 584 W/m² | - |
| 1778090563 | 27.78° C | 41% | 1006 hPa | 0 mm | - | 597 W/m² | - |
| 1778090260 | 27.78° C | 42% | 1006 hPa | 0 mm | - | 604 W/m² | - |
| 1778089960 | 27.78° C | 47% | 1007 hPa | 0 mm | - | 614 W/m² | - |
| 1778089659 | 27.22° C | 44% | 1007 hPa | 0 mm | - | 624 W/m² | - |
| 1778089360 | 27.22° C | 42% | 1007 hPa | 0 mm | - | 634 W/m² | - |
| 1778089060 | 27.22° C | 44% | 1007 hPa | 0 mm | - | 642 W/m² | - |
| 1778088760 | 27.22° C | 43% | 1007 hPa | 0 mm | - | 653 W/m² | - |
| 1778088460 | 27.22° C | 44% | 1007 hPa | 0 mm | - | 654 W/m² | - |
| 1778088160 | 27.22° C | 43% | 1007 hPa | 0 mm | - | 663 W/m² | - |
| 1778087860 | 27.78° C | 43% | 1007 hPa | 0 mm | - | 669 W/m² | - |
| 1778087560 | 27.78° C | 45% | 1007 hPa | 0 mm | - | 673 W/m² | - |
| 1778087260 | 27.22° C | 47% | 1007 hPa | 0 mm | - | 678 W/m² | - |
| 1778086960 | 27.22° C | 43% | 1007 hPa | 0 mm | - | 684 W/m² | - |
| 1778086660 | 27.22° C | 44% | 1008 hPa | 0 mm | - | 688 W/m² | - |
| 1778086360 | 27.22° C | 43% | 1008 hPa | 0 mm | - | 693 W/m² | - |
| 1778086060 | 26.67° C | 47% | 1008 hPa | 0 mm | - | 695 W/m² | - |
| 1778085760 | 26.67° C | 48% | 1008 hPa | 0 mm | - | 696 W/m² | - |
| 1778085459 | 26.67° C | 49% | 1008 hPa | 0 mm | - | 698 W/m² | - |
| 1778085160 | 26.67° C | 47% | 1008 hPa | 0 mm | - | 702 W/m² | - |
| 1778084859 | 26.67° C | 48% | 1008 hPa | 0 mm | - | 702 W/m² | - |
| 1778084560 | 26.67° C | 45% | 1008 hPa | 0 mm | - | 700 W/m² | - |
* Rain latest hour (hover to see other rain measurements)
** Current wind speed in m/s (hover to see current wind gust speed)